Home   Weather   Hay River   Past weeks

Flag for Canada Past Weather in Hay River, Northwest Territories, Canada — Yesterday and Last 2 Weeks

Now
50 °F

Passing clouds.


Feels Like: 46 °F
Forecast: 53 / 75 °F
Wind: 12 mph from South

Location: Hay River

Current Time: Aug 16, 2017 at 7:27:12 am

Latest Report: Aug 16, 2017 at 7:00 am


Visibility: 15 mi

Pressure: 29.63 "Hg

Humidity: 71%

Dew Point: 41 °F

Location of Hay RiverLocation

Past Weather in Hay River — Graph

°F

Hay River Temperature Yesterday

Maximum temperature yesterday: 68 °F (at 2:00 pm)
Minimum temperature yesterday: 57 °F (at 4:41 am)
Average temperature yesterday: 61 °F

High & Low Weather Summary for the Past Weeks

 TemperatureHumidityPressure
High91 °F (Aug 11, 5:00 pm)100% (Aug 4, 1:00 am)30.35 "Hg (Aug 4, 1:00 am)
Low45 °F (Aug 7, 5:00 am)26% (Aug 11, 5:00 pm)29.45 "Hg (Aug 13, 7:00 pm)
Average67 °F64%29.94 "Hg
* Reported Aug 1 5:00 am — Aug 16 5:00 am, Hay River. Weather by CustomWeather, © 2017

Note: Actual official high and low records may vary slightly from our data, if they occured in-between our weather recording intervals... More about our weather records

Advertising

Hay River Weather History for the Previous 24 Hours

Scroll right to see more
 ConditionsComfort  
Time TempWeatherWind HumidityBarometerVisibility
5:00 am
Wed, Aug 16
48 °FPassing clouds.9 mph71%29.63 "Hg15 mi
4:00 am48 °FPassing clouds.10 mph71%29.62 "Hg15 mi
3:00 am48 °FPassing clouds.7 mph71%29.62 "Hg15 mi
2:00 am52 °FPassing clouds.8 mph67%29.62 "Hg15 mi
1:00 am55 °FPassing clouds.8 mph59%29.62 "Hg15 mi
12:00 am55 °FPassing clouds.8 mph77%29.62 "Hg15 mi
11:00 pm
Tue, Aug 15
57 °FPassing clouds.8 mph88%29.62 "Hg15 mi
10:00 pm57 °FPassing clouds.9 mph88%29.62 "Hg15 mi
9:00 pm61 °FPartly sunny.8 mph83%29.61 "Hg15 mi
8:00 pm61 °FPartly sunny.9 mph77%29.62 "Hg15 mi
7:00 pm63 °FPartly sunny.5 mph64%29.62 "Hg15 mi
6:00 pm64 °FMostly cloudy.8 mph56%29.63 "Hg15 mi
5:00 pm66 °FMostly cloudy.13 mph52%29.62 "Hg15 mi
4:00 pm68 °FCloudy.12 mph49%29.62 "Hg15 mi
3:00 pm68 °FBroken clouds.2 mph53%29.62 "Hg15 mi
2:00 pm68 °FPartly sunny.3 mph49%29.63 "Hg15 mi
1:00 pm64 °FBroken clouds.No wind60%29.63 "Hg15 mi
12:00 pm61 °FBroken clouds.7 mph68%29.63 "Hg15 mi
11:00 am59 °FBroken clouds.8 mph88%29.64 "Hg15 mi
10:00 am59 °FBroken clouds.9 mph94%29.63 "Hg15 mi
9:00 am61 °FScattered showers. Mostly cloudy.5 mph88%29.64 "Hg15 mi
8:00 am59 °FMostly cloudy.5 mph94%29.64 "Hg15 mi
7:00 am59 °FLight rain. Mostly cloudy.5 mph94%29.62 "Hg10 mi
Weather by CustomWeather, © 2017

See weather overviewHow to use our weather pages